This is the latest recevied weather packets stored in our database for station/object KE5AKC. If no packets are shown the sender has not sent any weather packets the latest 1 day(s).
| Time | Temp. | Humidity | Pressure | Rain* | Wind** | Luminosity | Snow |
|---|---|---|---|---|---|---|---|
| 1836274803 | 26.67° C | 77% | 1015.7 hPa | 0 mm | 0.89 m/s, 149° | 0 W/m² | - |
| 1836274500 | 27.22° C | 77% | 1015.4 hPa | 0 mm | 0 m/s | 0 W/m² | - |
| 1836274354 | 26.67° C | 78% | 1015.7 hPa | 0 mm | 1.34 m/s, 165° | 0 W/m² | - |
| 1836274193 | 27.22° C | 76% | 1015.4 hPa | 0 mm | 0.45 m/s, 141° | 0 W/m² | - |
| 1836273892 | 27.22° C | 77% | 1015.7 hPa | 0 mm | 0.45 m/s, 187° | 0 W/m² | - |
| 1778047427 | 25° C | 87% | 1009.3 hPa | 0 mm | 0.89 m/s, 170° | 0 W/m² | - |
| 1778047123 | 25° C | 87% | 1009.3 hPa | 0 mm | 0.45 m/s, 176° | 0 W/m² | - |
| 1778046820 | 25° C | 87% | 1009.3 hPa | 0 mm | 2.24 m/s, 186° | 0 W/m² | - |
| 1778046517 | 25° C | 87% | 1009.3 hPa | 0 mm | 1.34 m/s, 125° | 0 W/m² | - |
| 1778046214 | 25° C | 87% | 1009.3 hPa | 0 mm | 0 m/s | 0 W/m² | - |
| 1778045910 | 25° C | 87% | 1009.3 hPa | 0 mm | 1.34 m/s, 192° | 0 W/m² | - |
| 1778045609 | 25° C | 87% | 1009.3 hPa | 0 mm | 0.89 m/s, 235° | 0 W/m² | - |
| 1778045307 | 25° C | 87% | 1009.3 hPa | 0 mm | 1.34 m/s, 156° | 0 W/m² | - |
| 1778045006 | 25° C | 87% | 1009.7 hPa | 0 mm | 0.45 m/s, 129° | 0 W/m² | - |
| 1778044703 | 25° C | 87% | 1009.7 hPa | 0 mm | 0.45 m/s, 174° | 0 W/m² | - |
| 1778044399 | 25° C | 86% | 1009.7 hPa | 0 mm | 1.34 m/s, 161° | 0 W/m² | - |
| 1778044097 | 25° C | 87% | 1009.3 hPa | 0 mm | 0.89 m/s, 72° | 0 W/m² | - |
| 1778043794 | 25° C | 87% | 1009.3 hPa | 0 mm | 1.34 m/s, 200° | 0 W/m² | - |
| 1778043490 | 25° C | 87% | 1009.3 hPa | 0 mm | 2.24 m/s, 163° | 0 W/m² | - |
| 1778043187 | 25° C | 86% | 1009.7 hPa | 0 mm | 1.34 m/s, 210° | 0 W/m² | - |
| 1778042884 | 25° C | 86% | 1009.7 hPa | 0 mm | 1.34 m/s, 101° | 0 W/m² | - |
| 1778042582 | 25° C | 86% | 1009.7 hPa | 0 mm | 0.45 m/s, 131° | 0 W/m² | - |
| 1778042279 | 25° C | 86% | 1009.7 hPa | 0 mm | 0.45 m/s, 166° | 0 W/m² | - |
| 1778041976 | 25° C | 86% | 1009.7 hPa | 0 mm | 1.34 m/s, 212° | 0 W/m² | - |
| 1778041675 | 25.56° C | 85% | 1009.3 hPa | 0 mm | 0.89 m/s, 4° | 0 W/m² | - |
* Rain latest hour (hover to see other rain measurements)
** Current wind speed in m/s (hover to see current wind gust speed)